This demonstration page uses our WeatherBlox Daily Observations layout. Learn more.

Left ArrowRight Arrow

36.19886, -115.1175

Hourly Observations for September 22, 2021

Temp ( °F °C ) Dew Point ( °F °C ) Humidity (%) Winds ( mph kmh ) Pressure ( in mb ) Visibility ( mi km ) Precip ( " mm )
12:53 am 00:53 Clear 73 22.8 28 -2.2 19 19 W 5 7 30.15 1021 10 16 N/A
1:53 am 01:53 Clear 72 22.2 29 -1.7 20 20 W 5 7 30.15 1021 10 16 N/A
2:53 am 02:53 Clear 73 22.8 26 -3.3 17 17 WNW 7 11 30.15 1021 10 16 N/A
3:53 am 03:53 Clear 69 20.6 28 -2.2 22 22 N N/A 30.15 1021 10 16 N/A
4:53 am 04:53 Clear 68 20 29 -1.7 23 23 WNW 5 7 30.16 1021 10 16 N/A
5:53 am 05:53 Clear 68 20 29 -1.7 23 23 WNW 7 11 30.16 1021 10 16 N/A
6:53 am 06:53 Sunny 67 19.4 27 -2.8 22 22 W 3 6 30.16 1021 10 16 N/A
7:53 am 07:53 Sunny 72 22.2 30 -1.1 21 21 N N/A 30.17 1022 10 16 N/A
8:53 am 08:53 Sunny 79 26.1 26 -3.3 14 14 N N/A 30.17 1022 10 16 N/A
9:53 am 09:53 Sunny 83 28.3 23 -5 11 11 N N/A 30.16 1021 10 16 N/A
10:53 am 10:53 Sunny 87 30.6 22 -5.6 9 9 N N/A 30.14 1021 10 16 N/A
11:53 am 11:53 Sunny 89 31.7 21 -6.1 8 8 N N/A 30.12 1020 10 16 N/A
12:53 pm 12:53 Sunny 91 32.8 21 -6.1 8 8 VRB 3 6 30.09 1019 10 16 N/A
1:53 pm 13:53 Sunny 93 33.9 22 -5.6 7 7 N N/A 30.04 1017 10 16 N/A
2:53 pm 14:53 Sunny 96 35.6 23 -5 7 7 VRB 3 6 29.99 1016 10 16 N/A
3:53 pm 15:53 Sunny 97 36.1 24 -4.4 7 7 NE 7 11 29.96 1015 10 16 N/A
4:53 pm 16:53 Sunny 99 37.2 26 -3.3 7 7 ENE 5 7 29.93 1014 10 16 N/A
5:53 pm 17:53 Sunny 97 36.1 27 -2.8 8 8 SW 12 19 29.91 1013 10 16 N/A
6:53 pm 18:53 Clear 94 34.4 34 1.1 12 12 WSW 12 19 29.91 1013 10 16 N/A
7:53 pm 19:53 Clear 91 32.8 34 1.1 13 13 SSW 5 7 29.92 1013 10 16 N/A
8:53 pm 20:53 Clear 88 31.1 36 2.2 16 16 WSW 5 7 29.92 1013 10 16 N/A
9:53 pm 21:53 Clear 85 29.4 34 1.1 16 16 N 6 9 29.91 1013 10 16 N/A
10:53 pm 22:53 Clear 80 26.7 30 -1.1 16 16 NW 5 7 29.91 1013 10 16 N/A
11:53 pm 23:53 Clear 78 25.6 32 undefined 19 19 NNW 3 6 29.91 1013 10 16 N/A

Powered by AerisWeather